Time,TemperatureF,DewpointF,PressureIn,WindDirection,WindDirectionDegrees,WindSpeedMPH,WindSpeedGustMPH,Humidity,HourlyPrecipIn,Conditions,Clouds,dailyrainin,SoftwareType,DateUTC
2013-06-07 00:01:00,58.5,56.5,30.01,ESE,112,0.0,2.0,93,0.01,,,-99.99,WeatherLink 5.7,2013-06-07 04:01:00,
2013-06-07 00:11:00,58.6,56.6,30.01,ESE,112,0.0,2.0,93,0.01,,,-99.99,WeatherLink 5.7,2013-06-07 04:11:00,
2013-06-07 00:21:00,58.6,56.6,30.00,ESE,112,1.0,3.0,93,0.02,,,-99.99,WeatherLink 5.7,2013-06-07 04:21:00,
2013-06-07 00:31:00,58.7,56.7,30.00,ESE,112,1.0,3.0,93,0.02,,,-99.99,WeatherLink 5.7,2013-06-07 04:31:00,
2013-06-07 00:41:00,58.8,57.1,30.00,ESE,112,1.0,3.0,94,0.02,,,-99.99,WeatherLink 5.7,2013-06-07 04:41:00,
2013-06-07 00:51:00,58.8,57.1,29.99,ESE,112,1.0,2.0,94,0.04,,,-99.99,WeatherLink 5.7,2013-06-07 04:51:00,
2013-06-07 01:01:00,58.8,57.1,30.00,ESE,112,0.0,2.0,94,0.05,,,-99.99,WeatherLink 5.7,2013-06-07 05:01:00,
2013-06-07 01:11:00,58.8,57.1,29.98,ESE,112,0.0,2.0,94,0.06,,,-99.99,WeatherLink 5.7,2013-06-07 05:11:00,
2013-06-07 01:21:00,58.8,56.8,29.98,ESE,112,1.0,2.0,93,0.06,,,-99.99,WeatherLink 5.7,2013-06-07 05:21:00,
2013-06-07 01:31:00,58.8,56.8,29.98,ESE,112,1.0,3.0,93,0.06,,,-99.99,WeatherLink 5.7,2013-06-07 05:31:00,
2013-06-07 01:41:00,58.7,57.0,29.97,ESE,112,1.0,3.0,94,0.06,,,-99.99,WeatherLink 5.7,2013-06-07 05:41:00,
2013-06-07 01:51:00,58.6,56.9,29.98,ESE,112,1.0,2.0,94,0.05,,,-99.99,WeatherLink 5.7,2013-06-07 05:51:00,
2013-06-07 02:01:00,58.5,56.8,29.98,ESE,112,0.0,2.0,94,0.04,,,-99.99,WeatherLink 5.7,2013-06-07 06:01:00,
2013-06-07 02:11:00,58.4,56.7,29.98,ESE,112,1.0,2.0,94,0.04,,,-99.99,WeatherLink 5.7,2013-06-07 06:11:00,
2013-06-07 02:21:00,58.3,56.3,29.98,ESE,112,0.0,2.0,93,0.03,,,-99.99,WeatherLink 5.7,2013-06-07 06:21:00,
2013-06-07 02:31:00,58.3,56.6,29.98,ESE,112,0.0,2.0,94,0.03,,,-99.99,WeatherLink 5.7,2013-06-07 06:31:00,
2013-06-07 02:41:00,58.1,56.1,29.97,ESE,112,1.0,2.0,93,0.02,,,-99.99,WeatherLink 5.7,2013-06-07 06:41:00,
2013-06-07 02:51:00,58.1,56.4,29.97,ESE,112,0.0,2.0,94,0.02,,,-99.99,WeatherLink 5.7,2013-06-07 06:51:00,
2013-06-07 03:02:00,58.1,56.1,29.95,ESE,112,1.0,2.0,93,0.02,,,-99.99,WeatherLink 5.7,2013-06-07 07:02:00,
2013-06-07 03:11:00,58.0,56.3,29.95,ESE,112,1.0,3.0,94,0.02,,,-99.99,WeatherLink 5.7,2013-06-07 07:11:00,
2013-06-07 03:21:00,58.1,56.4,29.95,ESE,112,1.0,3.0,94,0.02,,,-99.99,WeatherLink 5.7,2013-06-07 07:21:00,
2013-06-07 03:31:00,58.2,56.5,29.95,ESE,112,1.0,3.0,94,0.02,,,-99.99,WeatherLink 5.7,2013-06-07 07:31:00,
2013-06-07 03:41:00,58.3,56.6,29.94,ESE,112,1.0,3.0,94,0.02,,,-99.99,WeatherLink 5.7,2013-06-07 07:41:00,
2013-06-07 03:51:00,58.3,56.6,29.94,ESE,112,1.0,3.0,94,0.01,,,-99.99,WeatherLink 5.7,2013-06-07 07:51:00,
2013-06-07 04:01:00,58.4,56.7,29.93,ESE,112,0.0,2.0,94,0.03,,,-99.99,WeatherLink 5.7,2013-06-07 08:01:00,
2013-06-07 04:11:00,58.4,56.7,29.92,ESE,112,0.0,2.0,94,0.05,,,-99.99,WeatherLink 5.7,2013-06-07 08:11:00,
2013-06-07 04:21:00,58.5,56.8,29.92,ESE,112,0.0,1.0,94,0.08,,,-99.99,WeatherLink 5.7,2013-06-07 08:21:00,
2013-06-07 04:31:00,58.6,56.9,29.92,ESE,112,0.0,2.0,94,0.09,,,-99.99,WeatherLink 5.7,2013-06-07 08:31:00,
2013-06-07 04:41:00,58.6,56.9,29.92,ESE,112,1.0,2.0,94,0.10,,,-99.99,WeatherLink 5.7,2013-06-07 08:41:00,
2013-06-07 04:51:00,58.6,56.9,29.92,ESE,112,0.0,2.0,94,0.13,,,-99.99,WeatherLink 5.7,2013-06-07 08:51:00,
2013-06-07 05:01:00,58.6,56.9,29.92,ESE,112,0.0,2.0,94,0.14,,,-99.99,WeatherLink 5.7,2013-06-07 09:01:00,
2013-06-07 05:11:00,58.5,56.8,29.92,ESE,112,0.0,2.0,94,0.15,,,-99.99,WeatherLink 5.7,2013-06-07 09:11:00,
2013-06-07 05:21:00,58.5,56.8,29.92,ESE,112,0.0,2.0,94,0.13,,,-99.99,WeatherLink 5.7,2013-06-07 09:21:00,
2013-06-07 05:31:00,58.5,57.4,29.91,ESE,112,1.0,3.0,96,0.13,,,-99.99,WeatherLink 5.7,2013-06-07 09:31:00,
2013-06-07 05:41:00,58.5,57.7,29.91,ESE,112,1.0,3.0,97,0.14,,,-99.99,WeatherLink 5.7,2013-06-07 09:41:00,
2013-06-07 05:51:00,58.6,58.6,29.91,ESE,112,1.0,3.0,100,0.12,,,-99.99,WeatherLink 5.7,2013-06-07 09:51:00,
2013-06-07 06:01:00,58.7,58.7,29.90,ESE,112,0.0,2.0,100,0.09,,,-99.99,WeatherLink 5.7,2013-06-07 10:01:00,
2013-06-07 06:11:00,58.8,58.8,29.91,ESE,112,0.0,2.0,100,0.06,,,-99.99,WeatherLink 5.7,2013-06-07 10:11:00,
2013-06-07 06:21:00,58.9,58.9,29.90,ESE,112,0.0,3.0,100,0.06,,,-99.99,WeatherLink 5.7,2013-06-07 10:21:00,
2013-06-07 06:31:00,58.9,58.9,29.90,ESE,112,0.0,3.0,100,0.06,,,-99.99,WeatherLink 5.7,2013-06-07 10:31:00,
2013-06-07 06:41:00,59.1,59.1,29.90,ESE,112,1.0,3.0,100,0.05,,,-99.99,WeatherLink 5.7,2013-06-07 10:41:00,
2013-06-07 06:51:00,59.1,59.1,29.90,ESE,112,0.0,2.0,100,0.05,,,-99.99,WeatherLink 5.7,2013-06-07 10:51:00,
2013-06-07 07:01:00,59.2,59.2,29.91,ESE,112,0.0,2.0,100,0.05,,,-99.99,WeatherLink 5.7,2013-06-07 11:01:00,
2013-06-07 07:11:00,59.2,59.2,29.90,ESE,112,0.0,2.0,100,0.05,,,-99.99,WeatherLink 5.7,2013-06-07 11:11:00,
2013-06-07 07:22:00,59.3,59.3,29.90,ESE,112,0.0,2.0,100,0.04,,,-99.99,WeatherLink 5.7,2013-06-07 11:22:00,
2013-06-07 07:31:00,59.3,59.3,29.91,ESE,112,1.0,3.0,100,0.03,,,-99.99,WeatherLink 5.7,2013-06-07 11:31:00,
2013-06-07 07:41:00,59.2,59.2,29.90,ESE,112,0.0,3.0,100,0.02,,,-99.99,WeatherLink 5.7,2013-06-07 11:41:00,
2013-06-07 07:51:00,59.1,59.1,29.91,ESE,112,1.0,3.0,100,0.01,,,-99.99,WeatherLink 5.7,2013-06-07 11:51:00,
2013-06-07 08:01:00,59.1,59.1,29.90,ESE,112,1.0,3.0,100,0.02,,,-99.99,WeatherLink 5.7,2013-06-07 12:01:00,
2013-06-07 08:12:00,59.1,59.1,29.89,ESE,112,1.0,3.0,100,0.01,,,-99.99,WeatherLink 5.7,2013-06-07 12:12:00,
2013-06-07 08:21:00,59.1,59.1,29.90,ESE,112,1.0,3.0,100,0.02,,,-99.99,WeatherLink 5.7,2013-06-07 12:21:00,
2013-06-07 08:31:00,59.1,59.1,29.89,ESE,112,1.0,3.0,100,0.02,,,-99.99,WeatherLink 5.7,2013-06-07 12:31:00,
2013-06-07 08:41:00,59.2,59.2,29.89,ESE,112,1.0,3.0,100,0.02,,,-99.99,WeatherLink 5.7,2013-06-07 12:41:00,
2013-06-07 08:51:00,59.3,59.3,29.89,ESE,112,1.0,4.0,100,0.03,,,-99.99,WeatherLink 5.7,2013-06-07 12:51:00,
2013-06-07 09:01:00,59.4,59.4,29.89,ESE,112,1.0,3.0,100,0.03,,,-99.99,WeatherLink 5.7,2013-06-07 13:01:00,
2013-06-07 09:11:00,59.5,59.5,29.90,ESE,112,1.0,3.0,100,0.05,,,-99.99,WeatherLink 5.7,2013-06-07 13:11:00,
2013-06-07 09:21:00,59.5,59.5,29.88,ESE,112,1.0,3.0,100,0.05,,,-99.99,WeatherLink 5.7,2013-06-07 13:21:00,
2013-06-07 09:31:00,59.6,59.6,29.89,ESE,112,1.0,3.0,100,0.07,,,-99.99,WeatherLink 5.7,2013-06-07 13:31:00,
2013-06-07 09:41:00,59.7,59.7,29.89,ESE,112,1.0,3.0,100,0.08,,,-99.99,WeatherLink 5.7,2013-06-07 13:41:00,
2013-06-07 09:51:00,59.8,59.8,29.89,ESE,112,1.0,3.0,100,0.07,,,-99.99,WeatherLink 5.7,2013-06-07 13:51:00,
2013-06-07 10:01:00,59.9,59.9,29.89,ESE,112,1.0,2.0,100,0.07,,,-99.99,WeatherLink 5.7,2013-06-07 14:01:00,
2013-06-07 10:11:00,59.9,59.9,29.88,ESE,112,0.0,3.0,100,0.05,,,-99.99,WeatherLink 5.7,2013-06-07 14:11:00,
2013-06-07 10:21:00,59.9,59.9,29.88,ESE,112,1.0,3.0,100,0.05,,,-99.99,WeatherLink 5.7,2013-06-07 14:21:00,
2013-06-07 10:31:00,59.9,59.9,29.89,ESE,112,0.0,2.0,100,0.07,,,-99.99,WeatherLink 5.7,2013-06-07 14:31:00,
2013-06-07 10:41:00,60.0,60.0,29.88,ESE,112,0.0,2.0,100,0.09,,,-99.99,WeatherLink 5.7,2013-06-07 14:41:00,
2013-06-07 10:51:00,59.9,59.9,29.88,ESE,112,0.0,2.0,100,0.12,,,-99.99,WeatherLink 5.7,2013-06-07 14:51:00,
2013-06-07 11:01:00,59.9,59.9,29.88,ESE,112,0.0,1.0,100,0.15,,,-99.99,WeatherLink 5.7,2013-06-07 15:01:00,
2013-06-07 11:11:00,59.9,59.9,29.89,North,-999,0.0,0.0,100,0.18,,,-99.99,WeatherLink 5.7,2013-06-07 15:11:00,
2013-06-07 11:21:00,59.8,59.8,29.89,ESE,112,0.0,2.0,100,0.20,,,-99.99,WeatherLink 5.7,2013-06-07 15:21:00,
2013-06-07 11:31:00,59.9,59.9,29.89,ESE,112,0.0,1.0,100,0.19,,,-99.99,WeatherLink 5.7,2013-06-07 15:31:00,
2013-06-07 11:41:00,60.1,60.1,29.88,ESE,112,0.0,1.0,100,0.18,,,-99.99,WeatherLink 5.7,2013-06-07 15:41:00,
2013-06-07 11:51:00,60.3,60.3,29.88,ESE,112,0.0,1.0,100,0.16,,,-99.99,WeatherLink 5.7,2013-06-07 15:51:00,
2013-06-07 12:01:00,60.5,60.5,29.88,ESE,112,0.0,2.0,100,0.13,,,-99.99,WeatherLink 5.7,2013-06-07 16:01:00,
2013-06-07 12:11:00,60.7,60.7,29.88,ESE,112,0.0,1.0,100,0.11,,,-99.99,WeatherLink 5.7,2013-06-07 16:11:00,
2013-06-07 12:21:00,60.9,60.9,29.87,ESE,112,0.0,1.0,100,0.08,,,-99.99,WeatherLink 5.7,2013-06-07 16:21:00,
2013-06-07 12:31:00,61.0,61.0,29.87,ESE,112,0.0,1.0,100,0.06,,,-99.99,WeatherLink 5.7,2013-06-07 16:31:00,
2013-06-07 12:41:00,61.0,61.0,29.87,ESE,112,0.0,2.0,100,0.05,,,-99.99,WeatherLink 5.7,2013-06-07 16:41:00,
2013-06-07 12:51:00,61.2,-99.9,29.87,ESE,112,0.0,2.0,-999,0.06,,,-99.99,WeatherLink 5.7,2013-06-07 16:51:00,
2013-06-07 13:01:00,61.2,-99.9,29.87,ESE,112,0.0,2.0,-999,0.08,,,-99.99,WeatherLink 5.7,2013-06-07 17:01:00,
2013-06-07 13:11:00,61.2,-99.9,29.86,ESE,112,0.0,1.0,-999,0.10,,,-99.99,WeatherLink 5.7,2013-06-07 17:11:00,
2013-06-07 13:21:00,61.3,-99.9,29.86,ESE,112,0.0,2.0,-999,0.13,,,-99.99,WeatherLink 5.7,2013-06-07 17:21:00,
2013-06-07 13:31:00,61.4,61.4,29.85,ESE,112,0.0,1.0,100,0.14,,,-99.99,WeatherLink 5.7,2013-06-07 17:31:00,
2013-06-07 13:41:00,61.5,61.5,29.85,ESE,112,0.0,1.0,100,0.15,,,-99.99,WeatherLink 5.7,2013-06-07 17:41:00,
2013-06-07 13:51:00,61.6,61.6,29.85,ESE,112,0.0,1.0,100,0.14,,,-99.99,WeatherLink 5.7,2013-06-07 17:51:00,
2013-06-07 14:02:00,61.7,61.7,29.85,ESE,112,0.0,1.0,100,0.12,,,-99.99,WeatherLink 5.7,2013-06-07 18:02:00,
2013-06-07 14:11:00,61.7,61.7,29.84,ESE,112,0.0,2.0,100,0.10,,,-99.99,WeatherLink 5.7,2013-06-07 18:11:00,
2013-06-07 14:21:00,61.5,61.5,29.84,ESE,112,0.0,2.0,100,0.08,,,-99.99,WeatherLink 5.7,2013-06-07 18:21:00,
2013-06-07 14:30:00,61.5,61.5,29.83,ESE,112,0.0,2.0,100,0.07,,,-99.99,WeatherLink 5.7,2013-06-07 18:30:00,
2013-06-07 14:40:00,61.5,61.5,29.83,ESE,112,0.0,2.0,100,0.07,,,-99.99,WeatherLink 5.7,2013-06-07 18:40:00,
2013-06-07 14:51:00,61.3,61.3,29.83,ESE,112,0.0,1.0,100,0.07,,,-99.99,WeatherLink 5.7,2013-06-07 18:51:00,
2013-06-07 15:00:00,61.2,61.2,29.83,ESE,112,0.0,1.0,100,0.06,,,-99.99,WeatherLink 5.7,2013-06-07 19:00:00,
2013-06-07 15:11:00,61.2,61.2,29.82,ESE,112,0.0,2.0,100,0.08,,,-99.99,WeatherLink 5.7,2013-06-07 19:11:00,
2013-06-07 15:22:00,61.0,61.0,29.82,ESE,112,0.0,2.0,100,0.10,,,-99.99,WeatherLink 5.7,2013-06-07 19:22:00,
2013-06-07 15:31:00,60.9,60.9,29.82,ESE,112,0.0,2.0,100,0.11,,,-99.99,WeatherLink 5.7,2013-06-07 19:31:00,
2013-06-07 15:42:00,60.8,60.8,29.81,ESE,112,0.0,1.0,100,0.11,,,-99.99,WeatherLink 5.7,2013-06-07 19:42:00,
2013-06-07 15:51:00,60.7,60.7,29.80,WSW,247,0.0,2.0,100,0.11,,,-99.99,WeatherLink 5.7,2013-06-07 19:51:00,
2013-06-07 16:01:00,60.7,60.7,29.80,North,-999,0.0,1.0,100,0.13,,,-99.99,WeatherLink 5.7,2013-06-07 20:01:00,
2013-06-07 16:11:00,60.6,60.6,29.79,WSW,247,0.0,1.0,100,0.11,,,-99.99,WeatherLink 5.7,2013-06-07 20:11:00,
2013-06-07 16:21:00,60.6,60.6,29.78,SW,225,0.0,1.0,100,0.10,,,-99.99,WeatherLink 5.7,2013-06-07 20:21:00,
2013-06-07 16:31:00,60.7,60.7,29.77,SW,225,0.0,1.0,100,0.10,,,-99.99,WeatherLink 5.7,2013-06-07 20:31:00,
2013-06-07 16:42:00,60.7,60.7,29.77,SW,225,0.0,1.0,100,0.11,,,-99.99,WeatherLink 5.7,2013-06-07 20:42:00,
2013-06-07 16:51:00,60.7,60.7,29.78,SW,225,0.0,2.0,100,0.11,,,-99.99,WeatherLink 5.7,2013-06-07 20:51:00,
2013-06-07 17:01:00,60.7,60.7,29.78,SW,225,0.0,1.0,100,0.12,,,-99.99,WeatherLink 5.7,2013-06-07 21:01:00,
2013-06-07 17:11:00,60.7,60.7,29.77,SW,225,0.0,1.0,100,0.13,,,-99.99,WeatherLink 5.7,2013-06-07 21:11:00,
2013-06-07 17:21:00,60.7,60.7,29.75,WSW,247,0.0,3.0,100,0.14,,,-99.99,WeatherLink 5.7,2013-06-07 21:21:00,
2013-06-07 17:31:00,60.6,60.6,29.75,WSW,247,0.0,2.0,100,0.13,,,-99.99,WeatherLink 5.7,2013-06-07 21:31:00,
2013-06-07 17:41:00,60.5,60.5,29.76,WSW,247,0.0,3.0,100,0.10,,,-99.99,WeatherLink 5.7,2013-06-07 21:41:00,
2013-06-07 17:51:00,60.4,-99.9,29.76,WSW,247,0.0,2.0,-999,0.09,,,-99.99,WeatherLink 5.7,2013-06-07 21:51:00,
2013-06-07 18:01:00,60.3,60.3,29.77,WSW,247,0.0,2.0,100,0.09,,,-99.99,WeatherLink 5.7,2013-06-07 22:01:00,
2013-06-07 18:11:00,60.3,-99.9,29.75,WSW,247,0.0,1.0,-999,0.13,,,-99.99,WeatherLink 5.7,2013-06-07 22:11:00,
2013-06-07 18:21:00,60.4,-99.9,29.76,WSW,247,0.0,1.0,-999,0.13,,,-99.99,WeatherLink 5.7,2013-06-07 22:21:00,
2013-06-07 18:31:00,60.4,-99.9,29.76,WSW,247,0.0,2.0,-999,0.12,,,-99.99,WeatherLink 5.7,2013-06-07 22:31:00,
2013-06-07 18:42:00,60.4,-99.9,29.76,WSW,247,0.0,4.0,-999,0.12,,,-99.99,WeatherLink 5.7,2013-06-07 22:42:00,
2013-06-07 18:51:00,60.4,-99.9,29.77,WSW,247,0.0,2.0,-999,0.12,,,-99.99,WeatherLink 5.7,2013-06-07 22:51:00,
2013-06-07 19:01:00,60.3,-99.9,29.75,WSW,247,0.0,1.0,-999,0.14,,,-99.99,WeatherLink 5.7,2013-06-07 23:01:00,
2013-06-07 19:12:00,60.3,-99.9,29.74,SE,135,0.0,3.0,-999,0.11,,,-99.99,WeatherLink 5.7,2013-06-07 23:12:00,
2013-06-07 19:21:00,60.2,-99.9,29.74,SE,135,0.0,2.0,-999,0.09,,,-99.99,WeatherLink 5.7,2013-06-07 23:21:00,
2013-06-07 19:31:00,60.2,-99.9,29.74,SSE,157,0.0,2.0,-999,0.09,,,-99.99,WeatherLink 5.7,2013-06-07 23:31:00,
2013-06-07 19:42:00,60.2,60.2,29.74,SSE,157,0.0,2.0,100,0.09,,,-99.99,WeatherLink 5.7,2013-06-07 23:42:00,
2013-06-07 19:52:00,60.1,-99.9,29.73,SSE,157,0.0,2.0,-999,0.10,,,-99.99,WeatherLink 5.7,2013-06-07 23:52:00,
2013-06-07 20:01:00,60.1,-99.9,29.72,ESE,112,0.0,2.0,-999,0.05,,,-99.99,WeatherLink 5.7,2013-06-08 00:01:00,
2013-06-07 20:12:00,60.0,-99.9,29.73,ESE,112,0.0,2.0,-999,0.03,,,-99.99,WeatherLink 5.7,2013-06-08 00:12:00,
2013-06-07 20:21:00,60.0,-99.9,29.73,NE,45,0.0,2.0,-999,0.05,,,-99.99,WeatherLink 5.7,2013-06-08 00:21:00,
2013-06-07 20:30:00,60.0,60.0,29.73,NE,45,0.0,1.0,100,0.08,,,-99.99,WeatherLink 5.7,2013-06-08 00:30:00,
2013-06-07 20:41:00,59.9,59.9,29.71,NE,45,0.0,4.0,100,0.09,,,-99.99,WeatherLink 5.7,2013-06-08 00:41:00,
2013-06-07 20:51:00,59.8,-99.9,29.70,ESE,112,0.0,2.0,-999,0.10,,,-99.99,WeatherLink 5.7,2013-06-08 00:51:00,
2013-06-07 21:01:00,59.8,59.8,29.69,ENE,67,1.0,4.0,100,0.13,,,-99.99,WeatherLink 5.7,2013-06-08 01:01:00,
2013-06-07 21:11:00,59.7,59.7,29.69,SSE,157,0.0,4.0,100,0.14,,,-99.99,WeatherLink 5.7,2013-06-08 01:11:00,
2013-06-07 21:22:00,59.6,59.6,29.70,SE,135,1.0,3.0,100,0.13,,,-99.99,WeatherLink 5.7,2013-06-08 01:22:00,
2013-06-07 21:31:00,59.6,59.6,29.68,ESE,112,1.0,3.0,100,0.10,,,-99.99,WeatherLink 5.7,2013-06-08 01:31:00,
2013-06-07 21:41:00,59.6,59.6,29.70,ESE,112,0.0,3.0,100,0.10,,,-99.99,WeatherLink 5.7,2013-06-08 01:41:00,
2013-06-07 21:51:00,59.6,59.6,29.70,SE,135,0.0,3.0,100,0.09,,,-99.99,WeatherLink 5.7,2013-06-08 01:51:00,
2013-06-07 22:02:00,59.6,59.6,29.71,ENE,67,0.0,2.0,100,0.08,,,-99.99,WeatherLink 5.7,2013-06-08 02:02:00,
2013-06-07 22:11:00,59.5,59.5,29.69,East,90,0.0,3.0,100,0.08,,,-99.99,WeatherLink 5.7,2013-06-08 02:11:00,
2013-06-07 22:21:00,59.5,59.5,29.69,East,90,0.0,4.0,100,0.08,,,-99.99,WeatherLink 5.7,2013-06-08 02:21:00,
2013-06-07 22:32:00,59.4,59.4,29.68,East,90,0.0,2.0,100,0.09,,,-99.99,WeatherLink 5.7,2013-06-08 02:32:00,
2013-06-07 22:41:00,59.3,59.3,29.68,East,90,1.0,3.0,100,0.09,,,-99.99,WeatherLink 5.7,2013-06-08 02:41:00,
2013-06-07 22:51:00,59.2,59.2,29.67,ESE,112,0.0,2.0,100,0.12,,,-99.99,WeatherLink 5.7,2013-06-08 02:51:00,
2013-06-07 23:01:00,59.1,59.1,29.67,ESE,112,0.0,2.0,100,0.10,,,-99.99,WeatherLink 5.7,2013-06-08 03:01:00,
2013-06-07 23:11:00,59.1,59.1,29.68,SE,135,1.0,4.0,100,0.08,,,-99.99,WeatherLink 5.7,2013-06-08 03:11:00,
2013-06-07 23:21:00,59.0,-99.9,29.66,NNW,337,1.0,3.0,-999,0.06,,,-99.99,WeatherLink 5.7,2013-06-08 03:21:00,
2013-06-07 23:31:00,58.9,-99.9,29.66,WSW,247,0.0,2.0,-999,0.06,,,-99.99,WeatherLink 5.7,2013-06-08 03:31:00,
2013-06-07 23:42:00,58.9,-99.9,29.65,West,270,0.0,2.0,-999,0.05,,,-99.99,WeatherLink 5.7,2013-06-08 03:42:00,
2013-06-07 23:51:00,58.9,-99.9,29.66,South,180,0.0,3.0,-999,0.01,,,-99.99,WeatherLink 5.7,2013-06-08 03:51:00,